TimeMST,TemperatureF,Dew PointF,Humidity,Sea Level PressureIn,VisibilityMPH,Wind Direction,Wind SpeedMPH,Gust SpeedMPH,PrecipitationIn,Events,Conditions,WindDirDegrees,DateUTC
12:53 AM,36.0,26.1,67,29.63,10.0,West,3.5,-,N/A,,Clear,280,2013-01-10 07:53:00
1:53 AM,35.1,26.1,70,29.64,10.0,West,5.8,-,N/A,,Overcast,280,2013-01-10 08:53:00
2:53 AM,36.0,26.1,67,29.62,10.0,West,6.9,-,N/A,,Overcast,280,2013-01-10 09:53:00
3:53 AM,37.9,28.0,68,29.61,10.0,WNW,13.8,19.6,N/A,,Overcast,290,2013-01-10 10:53:00
4:53 AM,36.0,27.0,70,29.61,10.0,NW,4.6,-,N/A,,Overcast,320,2013-01-10 11:53:00
5:53 AM,36.0,27.0,70,29.63,10.0,West,11.5,-,N/A,,Overcast,280,2013-01-10 12:53:00
6:31 AM,35.6,30.2,81,29.58,10.0,North,11.5,-,N/A,,Overcast,350,2013-01-10 13:31:00
6:38 AM,33.8,28.4,81,29.58,10.0,North,13.8,20.7,N/A,Snow,Light Snow,350,2013-01-10 13:38:00
6:53 AM,33.1,28.0,82,29.67,3.0,NNW,16.1,-,0.00,Snow,Light Snow,330,2013-01-10 13:53:00
6:59 AM,32.0,28.4,87,29.60,1.8,NNW,12.7,-,0.01,Snow,Light Snow,340,2013-01-10 13:59:00
7:10 AM,30.2,28.4,93,29.60,1.2,NW,12.7,20.7,0.02,Snow,Light Snow,320,2013-01-10 14:10:00
7:26 AM,28.4,26.6,93,29.61,0.8,NW,13.8,21.9,0.04,Snow,Light Snow,320,2013-01-10 14:26:00
7:53 AM,28.0,26.1,92,29.71,0.8,NW,12.7,-,0.07,Snow,Light Snow,310,2013-01-10 14:53:00
8:32 AM,26.6,24.8,93,29.65,0.2,WNW,12.7,-,0.04,Fog-Snow,Snow,290,2013-01-10 15:32:00
8:53 AM,25.0,23.0,92,29.76,0.2,WNW,10.4,-,0.07,Fog-Snow,Snow,290,2013-01-10 15:53:00
9:37 AM,24.8,21.2,86,29.68,0.5,WNW,10.4,-,0.04,Fog-Snow,Snow,300,2013-01-10 16:37:00
9:48 AM,23.0,19.4,86,29.68,0.5,WNW,11.5,19.6,N/A,Fog-Snow,Light Snow,300,2013-01-10 16:48:00
9:53 AM,23.0,19.9,88,29.79,0.5,NW,11.5,-,0.05,Fog-Snow,Light Snow,310,2013-01-10 16:53:00
10:26 AM,23.0,17.6,80,29.68,1.0,NW,10.4,-,0.02,Snow,Light Snow,310,2013-01-10 17:26:00
10:53 AM,23.0,17.1,78,29.81,1.0,WNW,10.4,-,0.02,Snow,Light Snow,300,2013-01-10 17:53:00
11:02 AM,23.0,15.8,74,29.67,2.0,NW,15.0,23.0,0.00,Snow,Light Snow,320,2013-01-10 18:02:00
11:53 AM,23.0,14.0,68,29.80,4.0,NNW,16.1,21.9,0.00,Snow,Light Snow,340,2013-01-10 18:53:00
12:53 PM,21.9,14.0,72,29.81,4.0,NW,18.4,-,0.00,Snow,Light Snow,320,2013-01-10 19:53:00
1:18 PM,21.2,15.8,80,29.66,2.0,NNW,16.1,24.2,0.00,Snow,Light Snow,330,2013-01-10 20:18:00
1:28 PM,21.2,15.8,80,29.66,1.2,NNW,15.0,-,0.00,Snow,Light Snow,330,2013-01-10 20:28:00
1:39 PM,21.2,15.8,80,29.67,0.8,NNW,12.7,18.4,0.01,Snow,Light Snow,330,2013-01-10 20:39:00
1:48 PM,21.2,15.8,80,29.67,1.2,NNW,10.4,21.9,0.01,Snow,Light Snow,330,2013-01-10 20:48:00
1:53 PM,21.0,17.1,85,29.82,1.0,WNW,12.7,-,0.01,Snow,Light Snow,300,2013-01-10 20:53:00
1:55 PM,21.2,17.6,86,29.67,0.8,WNW,10.4,-,0.00,Snow,Light Snow,300,2013-01-10 20:55:00
2:01 PM,21.2,15.8,80,29.67,1.0,NNW,18.4,23.0,0.00,Snow,Light Snow,330,2013-01-10 21:01:00
2:07 PM,19.4,14.0,80,29.67,2.0,NW,17.3,24.2,0.00,Snow,Light Snow,320,2013-01-10 21:07:00
2:28 PM,19.4,12.2,74,29.68,5.0,NNW,16.1,-,0.00,Snow,Light Snow,330,2013-01-10 21:28:00
2:48 PM,19.4,12.2,74,29.68,9.0,NNW,15.0,24.2,0.00,,Overcast,330,2013-01-10 21:48:00
2:53 PM,19.9,10.9,68,29.83,9.0,NNW,18.4,25.3,0.00,,Overcast,330,2013-01-10 21:53:00
3:18 PM,19.4,12.2,74,29.70,3.0,NW,11.5,-,0.00,Snow,Light Snow,320,2013-01-10 22:18:00
3:38 PM,19.4,12.2,74,29.70,1.8,NNW,12.7,-,0.00,Snow,Light Snow,340,2013-01-10 22:38:00
3:51 PM,17.6,12.2,79,29.70,1.0,NNW,10.4,-,0.00,Snow,Light Snow,330,2013-01-10 22:51:00
3:53 PM,18.0,12.9,81,29.85,1.0,NW,12.7,-,0.00,Snow,Light Snow,310,2013-01-10 22:53:00
3:55 PM,17.6,12.2,79,29.70,0.8,NW,16.1,-,0.00,Snow,Light Snow,320,2013-01-10 22:55:00
4:53 PM,17.1,12.9,84,29.89,0.2,NW,15.0,21.9,0.02,Fog-Snow,Snow,310,2013-01-10 23:53:00
5:01 PM,17.6,12.2,79,29.73,0.2,NW,12.7,-,0.01,Fog-Snow,Snow,310,2013-01-11 00:01:00
5:13 PM,17.6,12.2,79,29.74,0.5,NW,8.1,21.9,0.01,Fog-Snow,Snow,310,2013-01-11 00:13:00
5:53 PM,15.1,10.9,84,29.91,0.8,NW,15.0,-,0.04,Snow,Light Snow,310,2013-01-11 00:53:00
6:11 PM,15.8,10.4,79,29.76,1.0,NW,13.8,-,0.01,Snow,Light Snow,310,2013-01-11 01:11:00
6:53 PM,15.1,10.0,80,29.94,1.2,NW,13.8,-,0.02,Snow,Light Snow,310,2013-01-11 01:53:00
7:01 PM,14.0,10.4,86,29.76,1.5,NW,11.5,-,0.00,Snow,Light Snow,310,2013-01-11 02:01:00
7:24 PM,14.0,8.6,79,29.77,2.0,NW,15.0,-,0.00,Snow,Light Snow,320,2013-01-11 02:24:00
7:40 PM,14.0,8.6,79,29.77,3.0,NW,11.5,-,0.00,Snow,Light Snow,320,2013-01-11 02:40:00
7:53 PM,14.0,8.1,77,29.97,3.0,NW,15.0,18.4,0.00,Snow,Light Snow,320,2013-01-11 02:53:00
8:05 PM,14.0,6.8,73,29.78,2.5,NNW,17.3,-,0.00,Snow,Light Snow,330,2013-01-11 03:05:00
8:22 PM,14.0,8.6,79,29.78,3.0,NW,12.7,-,0.00,Snow,Light Snow,310,2013-01-11 03:22:00
8:33 PM,12.2,8.6,85,29.79,1.8,NW,12.7,-,0.00,Snow,Light Snow,310,2013-01-11 03:33:00
8:45 PM,12.2,8.6,85,29.79,1.2,NW,12.7,-,0.01,Snow,Light Snow,320,2013-01-11 03:45:00
8:51 PM,12.2,6.8,79,29.79,1.8,NNW,15.0,23.0,0.01,Snow,Light Snow,330,2013-01-11 03:51:00
8:53 PM,12.9,7.0,77,29.99,2.0,NNW,18.4,23.0,0.01,Snow,Light Snow,330,2013-01-11 03:53:00
9:07 PM,12.2,6.8,79,29.79,5.0,NNW,17.3,-,0.00,Snow,Light Snow,330,2013-01-11 04:07:00
9:53 PM,12.0,7.0,80,30.01,2.0,NW,11.5,-,0.00,Snow,Light Snow,320,2013-01-11 04:53:00
10:13 PM,10.4,6.8,85,29.79,4.0,NNW,18.4,23.0,0.00,Snow,Light Snow,330,2013-01-11 05:13:00
10:53 PM,10.0,1.9,70,30.02,10.0,NNW,15.0,-,0.00,,Scattered Clouds,330,2013-01-11 05:53:00
11:53 PM,10.0,1.9,70,30.03,10.0,NW,17.3,-,N/A,,Overcast,320,2013-01-11 06:53:00